Terminal Aerodrome Forecast
Issued by NWS

Home | Current Version | Previous Version | Text Only | Print | Product List | Glossary On
Versions: 1 2 3 4 5 6 7 8 9 10 11 12 13 14 15
000
FTUS44 KTSA 171730
TAFXNA
TAF
KXNA 171730Z 1718/1818 22006KT 4SM BR OVC005
      TEMPO 1718/1720 6SM BR OVC007
     FM172000 20006KT P6SM OVC015
     FM180000 20004KT 4SM BR OVC007
     FM180600 20003KT 2SM BR OVC003
     FM181700 22007KT P6SM SKC=

USA.gov is the U.S. government's official web portal to all federal, state and local government web resources and services.